Miscellaneous Local Product
Issued by NWS North Platte, NE

Home | Current Version | Previous Version | Graphics & Text | Print | Product List | Glossary On
Versions: 1 2 3 4 5 6 7 8 9 10 11 12 13 14 15 16 17 18 19 20 21 22 23 24 25 26 27 28 29 30 31 32 33 34 35 36 37 38 39 40 41 42 43 44 45 46 47 48 49 50
000
AXUS43 KLBF 171710
MISLBF


WESTERN AND NORTH CENTRAL NEBRASKA HOURLY WEATHER ROUNDUP
NATIONAL WEATHER SERVICE NORTH PLATTE NE
1200 PM CDT THU AUG 17 2017

NOTE: "FAIR" INDICATES FEW OR NO CLOUDS BELOW 12,000 FEET WITH NO
SIGNIFICANT WEATHER AND/OR OBSTRUCTIONS TO VISIBILITY.

NOTE: STATIONS NOT REPORTING VARIABLES SUCH AS SKY/WEATHER OR
PRESSURE ARE PROVIDED BY RAWS AND APRS NETWORKS AND ARE NOT UNDER
NATIONAL WEATHER SERVICE QUALITY CONTROL.

...OBSERVATIONS IN AND NEAR THE EASTERN PANHANDLE OF NEBRASKA...

CITY           SKY/WX    TMP DP  RH WIND       PRES   REMARKS
PINE RIDGE     CLOUDY    79  58  48 S14       29.98F
GORDON         FAIR      79  56  44 SW10      30.01S
CHADRON        CLOUDY    79  51  37 CALM      29.98F
ALLIANCE       SUNNY     79  53  40 S13       30.04S
SIDNEY         SUNNY     78  51  38 S13       30.10F
CRESCENT LAKE    N/A     78  54  43 S12G21      N/A
$$

...OBSERVATIONS IN NORTHERN NEBRASKA AND FAR SOUTHERN SOUTH DAKOTA...

CITY           SKY/WX    TMP DP  RH WIND       PRES   REMARKS
WINNER         FAIR      83  56  39 CALM      29.95F
VALENTINE      SUNNY     82  53  36 VRB6      29.98F
THEDFORD       SUNNY     81  55  41 SW12G17   30.03S
AINSWORTH      SUNNY     79  58  48 W6        30.00F
O`NEILL        SUNNY     73  58  57 CALM      30.00S
ORD            SUNNY     77  55  46 W8        30.00S
BROKEN BOW     SUNNY     78  60  53 W10       30.03F
HALSEY           N/A     79  56  45 SW6G13      N/A
BUTTE            N/A     74  56  52 W3          N/A
CHAMBERS         N/A     78  59  51 CALM        N/A
EWING            N/A     74  60  60 NW6         N/A
$$

...OBSERVATIONS IN SOUTHWEST NEBRASKA AND FAR NORTHEAST COLORADO...

CITY           SKY/WX    TMP DP  RH WIND       PRES   REMARKS
HOLYOKE        FAIR      79  59  50 S9        30.09F
IMPERIAL       SUNNY     81  55  40 SW10      30.07F
OGALLALA       SUNNY     80  58  46 S15       30.05F
NORTH PLATTE   SUNNY     79  57  46 SW12      30.05F
MCCOOK         SUNNY     79  56  45 S6        30.06F
LEXINGTON      SUNNY     77  60  54 SW8       30.06S
STAPLETON        N/A     76  60  56 CALM        N/A
GOTHENBURG       N/A     75  51  43 W8          N/A
CALLAWAY         N/A     74  60  61 W12         N/A
$$

...OBSERVATIONS IN CENTRAL LINCOLN COUNTY AREA...

CITY           SKY/WX    TMP DP  RH WIND       PRES   REMARKS
N.P. AIRPORT   SUNNY     79  57  46 SW12      30.05F
N.P. SOUTHEAST   N/A     80  54  40 SW6         N/A
N.P. HILLCREST   N/A     77  58  51 W8          N/A
$$

...SOME OBSERVATIONS FROM AROUND THE REGION...

CITY           SKY/WX    TMP DP  RH WIND       PRES   REMARKS
DENVER         MOSUNNY   81  40  23 SW9       30.16F
LIMON          SUNNY     74  54  49 S13G20    30.19F
ASPEN          SUNNY     71  36  27 NE5       30.36S
LARAMIE        SUNNY     71  37  28 VRB5      30.26S
CASPER         SUNNY     77  42  28 S16G23    30.10F
CHEYENNE       SUNNY     78  37  22 W15       30.18S
SCOTTSBLUFF    CLOUDY    77  58  51 E6        30.05F
GRAND ISLAND   SUNNY     78  56  46 W13       30.02S
OMAHA          MOSUNNY   79  59  50 NW14G23   29.93R
SIOUX FALLS    MOSUNNY   74  62  66 NW12G21   29.89S
PIERRE         SUNNY     75  53  46 E8        29.91F
RAPID CITY     CLOUDY    78  54  43 SE6       29.93F
BISMARCK       SUNNY     78  53  41 SE12      29.90F
KANSAS CITY    MOSUNNY   78  63  59 W9        29.97S
HILL CITY      SUNNY     81  53  37 W8        30.08S
WICHITA        MOSUNNY   82  60  47 N5        30.05S
DODGE CITY     SUNNY     78  55  44 SW3       30.11F
OKLAHOMA CITY  MOSUNNY   83  69  62 N7        30.06S
DALLAS         PTSUNNY   87  77  72 S10       30.01R HX  99
AMARILLO       SUNNY     82  60  47 SE9       30.16F
$$




USA.gov is the U.S. government's official web portal to all federal, state and local government web resources and services.